Theta_e
365 365 364 362 362 362 362 361 361 361 360 360 361 362 360 358 357 356 354 355 356 356 356 357 358 360 359 356 354 354 356 358 357 358 360 360 360 357 355 356 359 362 361 359 357 356 356 358 358 359 359 358 358 357 356 357 358 359 359 358 358 357 356 356 356 355 354 350 350 349 348 348 348 349 350 351 352 351 350 350 349 348 347 347 346
365 364 364 363 362 362 361 362 362 361 360 361 362 363 362 360 359 357 356 356 356 357 358 358 357 358 359 357 355 354 355 358 358 357 359 361 361 360 357 357 359 361 361 361 361 359 358 359 360 359 358 358 359 358 356 355 356 358 358 359 359 358 358 359 358 357 357 356 355 354 354 353 353 353 353 352 353 352 353 353 353 352 351 349 349
364 365 364 362 362 362 363 363 362 361 361 361 361 362 362 361 360 359 358 356 356 357 358 359 358 357 357 357 358 356 356 358 359 357 358 360 361 360 357 358 359 360 362 361 361 361 360 360 359 358 357 356 358 358 357 355 355 355 356 358 359 359 359 360 360 359 358 357 356 355 355 355 354 354 354 355 355 355 355 355 354 354 353 352 352
363 364 364 362 363 364 363 363 362 362 361 361 360 360 360 361 361 360 359 355 356 358 359 359 360 359 358 358 359 360 359 360 360 359 358 359 361 361 359 358 359 361 362 361 360 360 359 359 359 357 356 356 357 358 358 357 356 356 356 357 358 358 359 359 360 361 361 360 358 356 354 354 354 354 354 355 355 355 356 356 356 355 355 354 354
362 365 364 363 363 363 363 362 362 362 361 359 359 359 359 359 360 361 360 356 355 358 359 360 360 361 361 359 361 361 361 361 361 360 358 358 359 361 361 360 359 361 362 362 361 360 359 359 359 357 357 357 357 358 359 358 358 358 357 358 357 358 359 359 360 361 362 362 361 359 358 358 358 357 357 356 355 356 357 358 358 357 357 357 357
361 363 364 362 362 362 362 362 362 362 361 359 358 358 357 357 358 360 360 357 355 356 360 360 360 361 362 361 361 362 363 363 362 360 358 358 359 359 360 360 360 360 362 363 362 361 360 360 358 358 357 357 357 358 358 359 359 359 359 359 358 359 359 360 361 362 362 363 363 363 362 361 361 360 360 360 359 360 360 360 361 360 360 360 359
360 363 363 362 362 362 363 362 361 362 361 359 358 357 357 355 356 359 359 358 356 355 358 361 360 361 363 362 362 363 364 363 363 362 358 356 358 359 358 359 360 360 362 363 361 360 359 360 359 358 359 358 358 358 357 358 359 360 361 361 361 360 359 360 362 363 364 364 364 364 364 363 363 363 363 362 363 362 362 362 361 361 361 360 359
360 363 364 362 362 363 363 362 360 361 361 359 357 357 356 355 354 356 358 359 357 354 356 360 361 361 363 364 363 364 365 364 363 364 362 357 357 359 359 358 358 360 361 361 360 357 356 356 357 357 359 359 359 359 358 358 360 361 362 363 364 364 364 363 362 363 364 364 364 364 363 363 363 363 363 364 363 364 363 362 361 360 360 359 358
359 362 364 364 364 364 364 363 362 361 361 360 358 357 357 356 354 355 358 359 358 355 353 357 361 362 363 364 364 362 364 364 364 364 364 362 357 356 359 359 357 357 359 360 359 358 355 352 350 352 354 357 359 360 359 359 359 361 363 364 364 365 366 366 364 364 364 364 364 362 361 362 362 362 362 363 364 363 361 360 360 359 358 358 358
361 363 365 365 365 366 364 364 362 362 362 362 360 358 357 357 356 355 358 360 359 357 355 354 359 361 362 363 364 363 362 363 363 361 361 362 360 356 356 359 358 356 356 358 358 357 356 354 351 349 351 353 355 358 358 358 357 357 358 361 364 367 367 366 365 364 364 364 364 362 361 360 361 360 360 361 362 360 358 358 358 358 359 360 360
362 364 365 366 367 368 366 365 364 363 362 363 362 360 358 358 358 357 359 360 361 360 358 356 356 359 361 363 364 362 361 359 360 360 357 357 360 360 356 357 359 359 356 357 357 355 354 353 353 351 350 352 353 354 355 355 353 352 351 351 356 361 365 366 365 364 363 363 362 362 361 360 360 360 360 360 360 358 358 359 360 361 361 361 361
363 364 366 368 367 369 368 367 367 365 364 365 365 362 360 359 359 360 360 362 363 362 360 358 357 357 359 362 363 362 360 358 359 359 356 352 353 358 359 356 357 359 359 357 356 356 354 351 350 350 351 352 354 356 356 355 353 352 350 348 347 349 353 357 360 362 363 364 363 362 363 362 361 362 361 361 360 360 361 361 362 362 362 362 362
364 364 366 368 369 369 369 368 369 368 368 368 368 366 363 361 361 362 362 364 364 365 363 361 360 358 358 360 362 362 360 359 359 358 356 352 349 353 358 357 355 357 359 358 356 356 356 355 351 350 349 351 354 358 361 361 360 358 355 354 352 348 347 348 351 353 356 359 362 363 363 363 363 363 362 362 362 363 362 362 362 362 362 363 362
363 365 366 368 370 369 370 370 370 370 369 369 370 368 365 364 364 364 364 364 366 366 364 363 362 361 360 360 362 362 361 360 361 359 357 354 351 351 354 357 355 354 357 359 358 357 358 359 357 355 353 352 353 358 363 365 366 364 362 360 358 355 352 351 349 349 351 353 355 357 358 360 361 362 362 362 361 362 363 362 362 362 362 361 360
363 365 366 368 370 370 370 370 370 371 371 370 371 370 368 367 366 364 364 365 366 367 366 364 364 364 362 360 361 362 361 360 361 360 359 358 356 354 355 356 357 356 356 358 361 361 360 361 362 361 360 359 357 358 362 366 367 368 367 365 364 362 361 360 358 356 355 354 353 353 354 355 357 358 360 360 360 361 361 361 360 359 359 358 358
363 364 366 368 371 371 371 371 371 371 371 370 371 370 369 369 368 366 365 365 367 368 366 365 365 365 364 362 361 361 361 360 360 361 361 359 358 356 356 358 358 358 358 358 361 362 363 364 364 365 364 364 362 360 361 364 367 368 368 368 367 366 365 365 363 362 360 359 358 357 357 358 358 358 359 359 359 359 360 358 358 356 357 357 358
364 365 367 368 370 371 370 371 371 371 371 372 371 370 370 370 369 367 366 365 366 366 367 366 364 365 365 364 362 362 360 359 359 359 360 361 359 358 357 359 360 359 360 359 360 362 364 364 365 366 365 365 364 362 362 363 364 366 367 367 365 365 365 364 363 363 362 361 360 359 358 359 358 358 359 358 358 358 358 357 356 357 357 357 357
364 366 368 369 370 371 370 370 371 372 372 371 370 371 371 370 370 368 366 365 363 364 366 365 365 364 365 365 365 363 360 359 360 359 359 359 359 358 358 359 360 361 361 361 361 362 363 362 362 364 366 366 364 364 364 363 363 364 365 364 365 364 364 363 362 362 361 360 361 359 359 359 358 358 359 359 359 358 357 356 356 356 357 356 355
364 368 368 369 371 371 370 370 371 371 371 371 371 370 370 369 370 368 366 364 362 362 364 365 365 364 364 365 365 364 362 360 360 360 359 359 358 358 359 361 361 362 363 363 363 363 363 362 361 361 363 363 364 366 366 364 364 364 364 365 364 363 363 363 362 362 361 362 362 361 361 362 361 361 360 360 359 358 357 356 356 357 356 354 352
365 367 369 369 371 371 370 371 371 372 372 371 370 370 369 369 369 369 368 365 362 362 362 363 364 365 363 362 363 363 362 361 361 361 360 360 357 357 360 361 362 362 363 363 363 364 364 364 363 361 360 359 360 364 365 364 365 364 364 364 364 364 362 363 363 363 363 364 364 364 365 365 364 363 361 360 360 358 357 357 356 356 354 351 349
366 368 369 369 370 370 370 370 371 372 372 371 370 369 369 368 368 368 367 365 363 362 360 361 361 363 363 361 362 363 363 362 363 362 361 361 359 358 360 362 363 363 364 364 363 365 365 365 366 364 362 360 359 360 360 362 363 363 363 363 363 363 362 363 365 365 365 365 365 365 365 363 362 361 360 359 359 359 360 359 355 352 350 349 350
366 369 369 368 369 370 369 370 371 371 371 371 370 368 368 367 367 368 366 364 363 363 363 361 361 361 362 362 362 363 364 362 362 363 362 362 360 358 359 361 362 363 364 364 365 365 364 366 367 366 365 364 362 360 359 359 360 360 361 361 361 361 361 361 361 362 362 363 362 363 363 362 361 359 359 359 358 356 356 354 351 347 343 339 340
367 369 369 368 368 369 369 369 370 370 371 371 370 369 369 367 366 367 366 365 364 365 365 365 363 362 362 363 364 363 363 364 362 362 362 362 361 360 359 359 360 362 364 365 366 366 365 366 366 366 365 364 363 363 361 360 359 358 358 358 358 357 357 356 357 357 358 360 361 361 360 360 359 359 358 357 354 352 351 349 344 338 332 330 334
368 369 369 368 368 369 369 370 370 369 370 371 369 369 369 367 367 367 367 367 366 366 367 366 365 364 363 363 364 364 365 365 364 363 361 361 361 360 360 359 358 359 362 364 366 366 366 365 365 364 364 363 363 363 362 361 360 359 358 357 356 355 355 354 355 356 357 358 359 359 359 359 359 358 357 354 352 350 346 339 333 333 335 338 341
370 370 369 369 369 369 369 370 369 368 370 371 370 370 368 368 367 367 367 367 366 366 367 368 367 365 365 363 364 364 366 367 367 366 363 362 361 361 360 360 358 358 360 362 364 364 363 362 362 363 363 363 362 362 362 361 360 359 357 356 355 354 353 354 355 357 358 358 359 359 359 360 358 355 354 350 345 343 341 337 336 339 342 343 342
371 370 369 369 368 368 368 369 369 368 369 370 370 370 369 367 367 367 367 368 367 367 368 368 368 368 366 365 365 366 366 368 368 368 367 364 362 361 360 360 359 358 358 359 361 362 362 361 361 361 361 363 362 361 361 360 360 358 356 355 354 353 353 355 357 358 359 360 360 360 360 359 354 351 349 345 341 342 343 342 341 342 342 341 340
372 371 370 368 368 367 368 370 370 369 369 369 370 369 368 367 366 367 367 367 367 368 368 367 368 369 368 367 366 366 367 368 369 370 369 366 365 363 361 360 359 358 357 356 358 359 360 360 359 359 359 360 360 361 360 360 358 357 355 354 354 354 355 358 360 360 360 360 360 360 358 355 350 348 346 344 343 344 344 341 340 341 340 339 340
372 372 369 368 368 368 369 370 369 369 369 368 368 367 367 365 365 367 367 367 367 368 369 369 368 369 369 369 369 367 367 368 369 370 369 368 367 364 362 360 359 358 357 356 356 357 358 358 357 357 357 359 359 359 359 359 358 357 356 356 356 356 357 359 360 360 360 359 357 356 353 349 347 344 344 344 345 344 341 339 340 341 339 339 340
372 372 370 369 368 367 368 369 369 368 369 366 367 368 367 365 365 367 368 367 367 368 370 369 369 368 368 368 369 369 369 368 369 370 370 369 367 364 362 362 360 358 358 357 355 356 357 358 357 358 358 359 359 359 358 358 358 357 357 357 358 358 359 359 359 359 358 356 355 353 350 347 345 343 343 342 344 342 339 338 340 340 340 340 339
372 371 368 367 367 366 367 367 366 369 367 366 366 369 369 367 366 369 369 369 368 369 369 370 369 368 367 367 369 370 370 371 371 371 371 370 369 366 364 363 361 359 359 357 355 355 358 358 358 358 359 358 358 358 358 358 358 358 358 357 358 358 359 359 360 359 357 354 353 351 347 345 344 343 341 341 341 341 338 337 338 340 340 338 337
369 368 365 365 367 365 365 366 366 367 368 367 367 369 369 366 366 368 369 370 370 369 369 370 371 370 370 370 371 370 370 373 373 372 371 371 370 368 365 364 362 360 358 356 354 355 359 359 359 359 359 358 358 358 358 358 358 357 358 358 357 358 358 358 358 358 355 352 349 347 343 342 342 341 339 338 337 337 338 338 338 338 337 336 336
366 363 365 369 369 367 364 365 366 367 368 369 370 370 370 368 367 367 367 368 370 370 369 369 369 369 370 371 372 371 371 371 372 371 371 371 370 368 366 364 362 360 358 356 354 356 359 360 360 360 360 359 359 358 359 358 358 357 357 358 357 356 356 357 357 355 352 348 344 342 340 340 339 338 337 335 334 335 337 337 336 336 335 334 334
365 364 367 372 371 368 367 367 368 367 368 369 371 372 373 371 370 369 366 366 367 369 370 369 369 368 368 369 369 370 370 370 370 369 368 368 368 367 366 363 362 360 357 355 355 357 360 361 361 360 360 359 359 359 358 359 358 357 358 358 357 355 354 353 352 350 346 343 340 339 339 338 337 336 335 334 334 335 335 335 335 335 334 333 331
370 371 372 372 372 371 371 371 372 371 371 372 373 373 373 371 371 371 369 367 365 366 367 368 367 368 367 367 367 367 367 368 367 368 367 366 365 365 363 363 360 358 356 355 357 359 361 361 361 361 361 359 360 359 359 359 358 358 357 355 354 352 350 347 346 344 341 339 337 337 337 335 335 336 336 335 334 335 334 334 334 332 332 331 330
370 371 371 372 371 371 372 371 372 373 374 373 374 373 371 371 370 370 371 370 367 366 367 366 366 366 366 366 366 366 365 365 365 364 365 365 363 362 361 360 357 354 354 356 358 360 361 362 361 362 361 360 359 359 359 359 359 357 354 352 350 349 347 343 341 340 339 337 335 335 335 335 335 335 335 336 335 334 334 334 332 329 329 329 329
364 365 366 367 368 367 368 368 370 371 370 371 370 370 370 370 370 368 370 370 370 369 367 363 359 359 361 362 363 363 363 362 362 362 362 363 362 360 360 359 357 354 353 356 359 360 361 362 362 362 363 362 361 360 359 358 359 357 353 350 348 347 343 340 339 338 336 334 334 335 335 335 335 334 334 335 334 333 333 332 329 326 326 325 327
354 354 357 360 363 364 366 367 368 368 368 367 366 365 367 368 368 368 369 369 368 368 366 358 354 354 354 354 355 357 358 359 360 359 360 360 360 360 360 360 360 358 356 358 360 360 362 363 363 363 363 361 357 356 354 353 354 353 349 347 345 343 339 338 338 337 336 334 335 335 335 335 335 334 334 334 332 331 332 331 328 326 325 325 327
347 347 351 354 358 360 363 364 363 362 363 364 363 363 364 365 365 366 367 367 366 366 365 361 359 356 352 348 349 352 353 355 356 355 355 356 356 357 360 363 364 361 359 360 360 361 362 363 361 359 357 355 352 351 350 349 348 346 344 343 341 339 336 335 336 336 336 335 335 334 335 335 335 334 334 333 332 331 330 329 328 328 328 328 329
347 346 348 351 353 355 357 358 358 359 359 360 361 362 363 363 364 364 364 364 363 364 364 364 361 354 348 346 348 348 348 350 351 351 351 352 353 355 358 363 365 363 362 362 362 362 362 360 356 352 350 349 348 347 346 345 343 342 340 339 338 336 335 334 335 335 334 334 334 334 334 335 333 332 332 331 330 329 329 328 327 328 328 329 329
348 346 346 347 348 351 353 353 354 356 357 357 357 359 360 361 362 363 363 364 364 363 363 361 356 350 347 347 348 348 349 351 352 350 350 350 352 354 358 362 363 362 363 362 360 360 359 357 352 347 346 346 345 344 343 342 341 339 338 337 337 336 335 334 334 334 333 333 334 333 333 333 332 331 331 330 329 329 329 329 328 328 327 328 328
345 346 346 346 347 349 351 351 352 353 353 354 357 359 359 360 362 362 363 364 362 357 354 350 346 344 344 344 345 347 349 350 349 349 350 351 352 354 355 355 355 357 358 356 353 351 352 351 348 344 343 342 341 340 340 338 337 336 336 336 335 335 334 333 332 333 332 332 333 332 332 331 329 329 330 329 328 327 327 327 328 328 328 328 329
342 344 345 346 347 348 350 349 350 351 351 353 355 355 356 357 357 356 356 356 352 347 344 342 339 338 338 340 342 346 347 347 346 347 347 348 348 349 347 345 345 346 347 346 344 342 342 342 342 341 340 338 337 336 335 334 333 333 333 332 331 331 331 331 330 331 331 331 332 331 330 329 329 329 330 330 328 327 327 329 329 328 328 328 328
341 342 343 344 346 348 349 349 350 350 350 349 349 350 350 351 350 348 346 345 342 341 339 338 335 334 336 338 340 341 341 341 340 340 339 339 339 340 340 339 339 338 337 337 338 338 338 337 336 335 334 334 334 334 333 332 332 332 331 330 330 330 330 329 329 330 330 330 330 330 330 329 328 328 329 328 328 327 328 329 329 328 327 327 327
339 340 342 343 344 344 345 345 346 346 346 345 344 344 344 344 343 342 341 340 338 337 336 335 334 335 335 335 335 335 334 334 333 332 331 331 331 331 333 334 333 332 331 332 332 333 332 331 331 329 329 330 330 330 330 329 330 330 330 330 330 330 329 329 329 328 329 329 329 330 330 329 329 328 328 328 328 328 328 328 327 327 327 327 326
336 337 338 339 339 338 338 339 340 341 342 342 341 340 339 338 338 337 337 336 335 333 332 332 332 333 332 332 331 331 331 331 330 328 328 328 328 327 327 328 327 326 326 327 327 327 326 326 326 326 326 326 326 326 326 325 325 325 326 327 327 327 328 329 329 329 330 330 330 330 329 329 329 329 329 328 328 328 327 327 326 326 326 326 326
330 330 331 332 331 331 331 331 333 334 335 335 336 334 333 332 331 331 330 330 329 328 328 327 327 327 327 329 330 331 330 329 328 327 327 327 327 325 324 324 324 324 323 323 323 323 323 322 322 322 321 321 321 321 321 322 323 323 323 323 323 324 325 326 327 328 329 330 330 330 330 329 329 328 328 327 328 327 327 327 326 325 326 325 325
322 322 323 324 325 325 324 324 325 326 326 326 327 327 326 326 326 326 326 326 325 324 323 323 321 320 320 322 324 325 324 321 320 320 321 321 322 321 320 320 319 319 319 319 319 319 319 319 318 319 319 318 318 317 317 320 322 323 322 322 322 322 323 325 326 326 325 327 328 328 328 328 328 327 327 327 327 327 326 326 326 325 325 325 324
317 317 317 318 318 318 318 319 319 320 320 320 320 320 320 320 320 320 320 321 321 321 320 320 319 318 317 317 317 317 316 315 314 314 314 315 315 316 315 315 315 315 316 316 316 316 316 316 316 316 316 317 317 317 318 319 320 320 320 320 320 320 320 322 324 323 322 322 323 323 324 325 325 325 326 326 326 326 326 326 326 325 325 324 324
313 313 313 313 313 313 314 314 314 314 314 315 315 315 315 314 314 314 315 315 315 315 316 316 316 316 316 315 314 313 313 312 312 311 310 311 311 311 312 312 313 313 313 313 313 313 313 314 314 313 312 312 312 313 314 315 316 317 316 316 316 317 318 320 321 321 320 320 320 321 322 324 324 325 325 325 325 325 325 325 325 325 325 324 324
310 310 310 310 310 310 310 311 311 310 310 310 310 310 310 310 310 310 310 310 310 310 310 310 310 310 310 310 310 309 309 308 307 306 306 306 306 306 306 307 307 307 307 308 308 308 309 309 310 310 309 307 307 307 307 308 309 309 310 311 312 314 315 317 318 318 319 319 320 321 322 324 324 325 325 324 325 324 324 323 323 324 325 324 324
307 308 308 307 307 307 308 308 309 309 308 308 308 308 307 307 308 308 308 307 307 307 307 306 306 306 306 306 306 306 305 305 304 304 304 303 303 303 303 303 303 304 304 304 304 304 304 305 305 306 306 307 306 306 305 305 304 304 306 308 310 311 312 313 314 315 316 316 316 318 319 320 321 321 321 322 321 320 319 319 320 321 321 322 322
Wind_Speed
34 33 34 33 32 32 31 30 29 27 26 25 24 23 23 23 22 22 21 20 20 21 21 21 20 19 19 19 18 18 18 18 17 17 16 16 15 14 13 13 13 13 12 12 11 10 10 10 10 10 10 10 9 9 9 9 10 10 10 9 10 10 11 11 10 11 12 12 12 13 12 12 13 13 15 16 16 17 18 20 20 21 22 22 23
35 34 34 33 33 32 32 31 30 28 27 26 25 24 23 23 23 22 22 21 21 21 22 22 21 20 19 18 19 19 19 19 18 17 17 16 16 15 14 14 14 14 13 13 12 11 11 11 11 11 11 12 12 11 10 10 10 11 11 11 11 11 11 12 12 12 12 12 12 13 13 13 14 15 15 16 17 17 18 19 19 20 22 23 24
35 34 33 33 33 33 31 31 30 30 29 27 26 25 24 24 24 23 22 22 22 22 22 22 22 21 20 19 19 19 19 19 19 18 17 17 17 16 15 15 16 15 15 15 14 13 12 12 12 12 12 12 13 12 12 11 11 11 11 11 12 12 12 13 13 13 14 13 13 13 13 13 14 15 16 16 18 19 20 21 20 20 21 22 24
34 34 33 34 33 33 32 31 31 31 30 28 28 27 25 24 24 24 24 23 23 23 22 21 22 22 21 20 20 20 20 20 19 18 18 18 18 17 16 16 16 16 16 16 15 14 14 13 13 13 13 13 13 13 12 12 12 12 12 12 13 13 13 13 14 15 14 15 15 14 14 15 16 17 17 18 19 20 21 21 21 21 21 21 22
34 34 34 34 34 34 33 32 32 32 31 29 28 28 27 25 25 25 25 24 23 23 23 22 22 22 22 22 21 21 21 20 20 19 18 18 18 18 17 17 17 17 17 17 16 15 15 15 14 14 13 14 14 14 13 13 13 13 13 13 13 14 14 14 15 15 16 16 17 16 15 16 17 17 17 18 20 20 20 20 20 21 21 20 20
35 35 34 34 35 35 35 34 33 33 32 30 29 28 28 26 26 25 25 25 24 23 23 23 23 23 23 22 22 22 21 21 21 20 19 19 19 18 18 18 18 18 17 17 17 16 16 16 15 15 15 15 15 15 14 14 14 14 14 14 14 14 15 15 15 16 17 18 17 16 16 16 17 17 17 17 18 17 17 17 17 17 18 18 18
35 35 34 34 35 35 36 35 35 34 33 32 30 29 29 28 27 26 25 25 25 24 24 24 24 24 24 23 23 23 22 22 22 22 21 20 19 19 19 18 18 18 18 18 18 17 17 17 16 16 16 16 16 16 15 15 15 15 15 15 15 15 15 15 15 15 16 17 17 16 16 16 16 16 15 13 14 15 15 16 16 15 15 17 18
35 35 34 34 34 36 36 35 35 34 33 32 30 29 29 28 27 26 25 25 26 26 25 25 24 24 24 24 23 23 23 23 22 22 22 21 20 20 19 19 18 18 18 18 18 18 18 17 17 17 18 18 18 17 17 15 15 15 15 15 16 16 15 15 15 15 16 17 16 16 16 16 16 16 14 12 13 14 14 15 16 16 17 18 19
35 35 34 34 34 35 35 34 33 33 32 32 32 30 29 29 28 27 26 25 25 26 25 25 24 24 24 25 24 24 23 23 24 24 23 22 22 21 20 20 20 19 18 18 18 18 18 18 18 18 18 19 19 20 19 18 17 15 15 15 16 16 16 15 14 14 15 16 16 16 16 16 15 15 14 12 13 14 15 16 17 18 19 20 21
34 35 35 34 34 33 33 32 32 33 33 32 33 31 29 28 28 28 27 26 25 25 25 25 25 24 24 25 25 24 24 24 25 26 26 24 23 22 21 21 21 20 19 19 19 19 19 19 19 19 19 19 20 22 23 23 22 20 17 16 15 15 15 15 15 15 14 15 16 16 16 16 16 15 15 14 14 15 16 17 17 19 20 20 20
34 34 34 33 32 32 32 32 32 33 33 32 33 32 30 29 28 28 27 26 25 25 25 25 25 24 24 25 25 25 25 25 26 29 30 28 25 22 22 21 21 21 21 20 20 19 20 20 19 19 20 20 21 23 26 27 28 27 26 23 21 19 17 16 15 14 15 16 17 16 16 16 16 15 16 15 15 15 16 17 17 19 20 19 18
33 32 31 31 31 32 32 31 32 32 32 32 32 33 31 29 28 28 28 27 26 25 24 25 25 24 24 24 24 24 25 25 28 31 32 32 30 25 21 21 21 21 21 22 21 20 20 20 20 20 19 20 21 22 25 28 29 29 29 28 28 26 25 23 20 18 16 17 18 18 17 17 16 16 16 15 15 16 17 17 17 19 21 21 19
31 30 30 30 31 32 32 32 31 32 32 31 30 31 31 30 29 29 28 27 26 25 25 25 25 25 24 23 24 24 24 25 28 31 32 34 34 30 24 20 21 21 21 21 22 21 21 21 21 21 20 20 20 20 21 23 24 25 25 25 26 26 26 27 27 27 25 21 20 20 18 16 15 15 15 14 16 17 18 18 18 19 21 21 21
31 31 30 30 30 31 32 32 31 31 31 30 29 30 31 30 29 29 28 28 27 26 26 25 25 26 25 24 23 23 23 25 27 30 32 32 34 34 28 21 19 20 21 21 21 22 22 21 21 21 21 21 20 19 19 19 19 21 21 22 24 24 24 24 25 27 29 29 29 29 26 22 20 19 18 18 18 18 18 20 19 20 21 22 24
30 31 30 30 30 31 31 31 30 30 30 30 30 30 31 30 29 28 27 27 27 26 26 25 25 26 26 25 24 23 23 25 26 28 31 31 31 33 31 24 20 19 20 21 21 21 22 22 21 21 21 20 21 21 19 18 17 18 19 19 21 21 22 22 22 22 24 26 29 32 31 29 26 23 21 20 19 17 17 19 20 21 24 24 23
30 31 31 31 31 31 31 31 30 30 30 30 30 30 30 30 29 27 26 26 26 25 25 25 25 25 26 26 26 25 24 25 26 27 29 29 28 30 30 27 23 22 20 20 21 21 21 22 22 22 21 21 23 23 22 19 17 17 17 17 17 18 19 19 20 21 20 20 23 25 25 24 23 20 19 18 18 20 22 23 22 22 23 21 18
30 31 32 32 32 32 32 31 30 30 30 30 30 29 29 29 28 27 26 25 25 25 25 25 25 25 26 26 27 26 25 27 28 28 28 28 27 29 30 26 24 23 22 21 22 22 23 23 23 21 22 23 24 24 24 22 20 18 18 17 17 18 18 18 18 19 21 21 22 22 22 22 22 22 22 21 21 23 25 22 19 18 19 18 16
31 32 33 32 32 32 32 31 31 30 31 31 30 29 28 28 27 27 27 26 25 25 24 24 24 25 26 27 27 26 26 28 30 30 30 30 29 30 30 26 23 22 22 22 23 22 23 25 26 25 23 24 24 24 24 24 23 21 20 19 18 19 18 17 16 17 18 19 19 21 23 24 25 25 23 22 21 20 20 18 16 15 17 18 18
33 33 33 33 31 31 31 31 31 30 31 31 30 29 28 27 26 26 26 26 25 24 24 23 24 25 26 27 28 28 27 28 31 33 33 33 33 33 30 25 22 21 21 21 23 23 23 25 28 30 29 27 25 23 23 24 24 22 20 19 19 19 17 16 16 16 16 16 17 18 19 18 18 18 17 17 16 15 15 17 17 15 15 18 18
33 32 31 31 30 30 30 31 31 30 30 29 28 27 26 25 25 25 25 24 24 24 24 23 23 24 24 25 27 28 27 27 29 32 34 35 35 35 30 24 22 22 21 21 22 22 23 24 27 32 34 33 30 27 25 25 24 22 21 20 19 17 15 14 13 14 14 13 14 14 13 11 12 13 14 15 15 15 16 18 16 13 14 17 16
31 30 30 30 30 30 30 30 30 29 28 28 27 26 26 25 25 25 24 23 23 24 24 24 23 23 23 23 24 26 27 27 28 30 34 35 36 36 32 26 22 22 22 22 22 21 22 23 24 27 31 32 33 32 31 30 28 25 24 22 19 17 15 13 11 9 9 11 13 14 13 12 12 13 14 15 16 15 16 15 12 9 10 12 13
30 30 30 30 29 29 29 29 29 27 26 27 26 25 25 25 24 24 23 22 23 23 23 23 22 22 22 22 22 23 25 27 29 29 31 34 35 37 35 29 25 24 22 22 22 22 21 22 22 24 26 27 28 29 30 31 31 31 29 26 23 20 19 18 15 12 12 13 13 13 12 11 12 14 15 15 14 11 8 7 6 7 10 12 13
30 29 29 29 28 28 27 28 28 26 26 27 27 26 25 24 23 23 22 21 21 22 22 21 21 20 20 20 21 22 23 26 29 31 31 32 34 36 37 34 30 27 24 22 21 20 20 20 20 21 23 24 23 23 24 25 28 30 30 29 27 25 24 23 20 16 14 14 13 13 12 11 13 15 14 12 9 7 6 8 10 12 14 15 14
28 27 27 27 26 26 26 27 27 25 25 27 27 25 25 24 23 23 22 21 20 20 20 20 20 20 20 20 21 21 22 23 27 31 32 32 33 35 36 36 34 31 27 22 20 19 19 21 21 21 20 21 21 21 21 22 23 24 23 23 23 24 25 23 20 16 14 14 14 14 13 14 14 12 9 7 6 7 10 13 13 13 13 12 11
26 26 26 26 26 25 24 25 25 24 24 26 25 25 24 23 22 22 22 21 21 20 20 20 20 20 20 20 20 20 21 21 23 28 30 32 34 35 35 36 36 35 31 24 20 19 19 17 18 20 20 20 19 19 20 20 19 19 18 17 18 20 20 19 16 14 14 14 14 14 14 15 13 9 9 11 11 10 10 10 10 10 10 10 10
24 24 24 24 24 24 23 23 23 23 23 23 23 23 23 23 22 22 22 22 21 20 20 20 20 19 19 20 19 19 20 20 21 24 28 32 35 35 35 35 35 36 35 29 24 21 19 17 15 14 14 16 17 17 18 18 17 15 15 17 17 16 15 14 14 14 15 15 15 16 15 12 9 8 10 13 10 6 5 6 8 8 7 6 7
21 21 22 22 22 22 22 22 22 22 22 22 21 21 22 22 22 22 22 22 21 21 20 20 20 19 19 19 19 20 20 21 21 21 25 31 34 35 36 36 35 36 38 36 31 25 21 20 18 14 11 12 14 15 15 15 15 14 14 15 17 15 14 15 15 16 17 16 13 13 11 9 7 7 9 9 7 5 5 5 6 6 4 5 7
20 20 20 20 21 21 20 21 21 21 21 21 20 21 22 22 22 23 23 22 21 21 21 20 20 20 19 19 19 20 20 21 21 20 22 28 32 34 35 37 37 37 38 38 37 31 23 19 17 15 13 12 12 14 15 15 15 14 13 14 14 14 16 17 17 17 16 14 10 9 7 6 7 7 7 7 6 5 4 4 5 4 3 4 5
20 20 20 19 20 20 20 21 21 20 20 21 19 19 20 22 21 22 23 23 23 21 21 21 20 20 20 20 19 19 19 20 21 20 21 24 27 28 30 33 36 37 36 36 34 29 24 20 17 16 17 16 15 17 19 18 17 17 16 16 15 15 18 18 17 17 17 15 12 10 8 7 7 8 8 7 6 5 5 4 4 3 4 5 4
19 19 19 18 19 20 20 21 21 19 19 20 18 16 18 20 21 20 22 25 26 23 21 21 20 20 21 21 19 19 18 17 18 19 19 19 20 21 22 24 26 29 32 33 29 23 21 22 20 18 20 21 20 21 21 20 18 18 18 18 18 18 18 16 14 14 16 16 14 12 11 10 9 9 8 6 6 6 5 4 4 4 3 3 3
17 17 17 16 18 20 20 19 20 19 18 19 19 16 15 16 18 18 19 23 27 26 23 19 17 17 18 16 15 16 15 12 12 14 17 17 17 18 18 17 17 19 23 27 27 23 21 23 22 20 21 22 22 22 22 20 19 19 19 19 19 18 18 17 15 13 14 14 13 12 11 11 10 9 8 6 6 6 5 4 4 3 2 3 3
14 16 15 12 14 18 18 17 19 19 17 17 19 18 16 14 15 15 15 18 23 26 26 23 19 16 15 13 11 12 14 13 11 11 14 16 17 18 18 16 16 16 17 20 24 23 21 23 23 22 22 23 23 22 22 22 21 20 20 19 19 18 18 18 16 14 13 13 13 13 11 10 9 8 7 6 6 6 4 3 3 1 2 3 3
13 15 14 11 12 15 16 14 15 18 16 15 15 17 16 15 14 15 14 15 18 22 25 27 26 23 21 18 13 11 12 14 14 13 13 15 16 16 17 17 16 17 19 21 21 21 21 23 24 23 23 24 23 23 23 23 22 22 22 19 17 17 17 16 15 16 15 13 13 12 11 10 9 8 8 7 6 5 4 2 1 0 2 3 3
9 10 11 12 13 14 13 11 12 14 14 13 12 13 15 14 14 14 15 14 15 17 20 23 26 26 25 24 21 17 13 13 14 14 14 15 14 15 17 18 17 19 21 21 19 19 21 23 24 24 24 24 24 24 23 22 22 22 20 16 14 15 16 14 15 17 16 13 13 12 10 10 9 8 8 7 6 5 4 2 1 1 2 3 3
9 10 9 10 13 14 13 12 12 12 12 11 11 11 13 14 13 14 14 13 13 15 17 19 23 25 24 24 25 24 21 18 16 16 16 16 15 15 17 18 19 21 23 22 20 20 22 23 24 24 24 24 25 24 22 22 22 20 16 14 15 18 18 16 16 17 16 14 13 12 11 10 10 8 8 7 5 4 3 3 2 2 1 2 3
8 9 8 5 8 12 12 9 8 9 9 10 11 11 12 12 13 13 13 11 11 11 11 13 18 20 21 21 22 22 22 22 20 19 18 17 17 17 17 17 17 20 22 22 21 21 21 22 23 22 21 21 22 20 18 20 22 21 17 17 19 19 18 16 15 15 14 12 11 11 10 10 10 9 8 7 5 5 4 3 3 3 2 2 3
11 11 9 8 4 5 10 8 7 5 2 5 9 10 10 10 11 12 11 10 10 8 8 11 12 12 13 14 16 17 18 19 20 19 19 19 19 18 18 17 18 19 20 21 21 21 21 21 20 18 18 18 18 18 17 18 20 19 18 17 16 15 15 15 14 14 12 10 10 10 10 9 9 9 7 6 6 5 5 4 4 5 4 1 3
14 13 11 12 11 5 7 10 10 7 1 4 6 7 7 8 8 9 8 8 9 8 9 11 9 8 8 8 8 9 12 15 16 18 19 20 21 21 19 18 18 19 20 20 20 20 21 19 16 14 15 17 18 20 20 19 19 18 16 15 14 14 14 14 13 12 11 10 9 10 10 9 9 8 7 6 5 4 4 4 4 5 6 6 6
13 12 10 10 10 7 5 8 9 6 5 7 6 5 5 5 6 7 7 7 8 8 7 7 6 7 9 8 6 7 10 12 14 16 17 19 22 23 20 17 17 20 20 18 18 20 20 16 11 10 11 13 16 19 20 19 17 16 16 15 14 14 14 12 10 9 10 9 9 9 9 8 9 9 7 6 5 5 5 5 4 4 4 5 4
12 11 10 8 7 7 7 7 7 6 4 4 4 4 5 5 5 6 7 6 5 4 3 5 9 10 8 6 6 8 10 10 10 12 12 13 16 19 17 14 14 17 17 14 13 16 15 12 9 8 10 13 16 15 15 15 15 15 14 13 12 12 12 11 9 9 10 10 9 9 9 7 8 8 6 5 5 5 5 5 5 4 5 5 4
10 10 10 8 6 5 4 5 7 8 6 4 5 5 3 1 1 2 2 3 3 6 9 11 11 7 3 5 7 9 9 8 8 9 10 10 11 12 11 8 7 8 8 7 9 11 10 9 11 11 10 12 12 10 10 11 13 13 11 9 9 10 9 8 9 9 9 9 9 9 8 7 7 7 6 5 4 4 4 5 6 6 7 7 7
8 8 9 8 8 8 7 7 8 10 9 9 11 11 10 7 7 7 7 7 10 11 12 11 9 6 3 5 8 9 8 7 6 6 6 7 7 8 7 4 4 5 6 7 8 8 6 6 7 7 6 8 8 8 7 8 11 11 10 9 11 11 9 8 9 8 8 7 7 7 7 7 6 5 4 4 4 4 6 7 7 7 8 8 8
9 8 9 9 12 15 16 15 13 14 15 14 13 13 12 11 10 11 11 12 12 11 10 9 8 7 7 7 8 9 9 9 9 9 10 10 9 8 8 8 9 10 10 11 10 10 12 13 12 11 13 14 14 12 9 8 10 10 9 10 12 11 9 9 9 8 7 6 6 7 6 6 5 4 3 3 4 5 7 8 8 9 9 9 10
12 11 11 13 15 16 17 18 16 15 15 15 14 13 13 12 11 11 10 10 9 9 9 9 8 9 10 10 10 10 10 11 12 13 13 13 12 13 13 15 16 15 15 14 15 16 17 17 16 16 18 20 20 19 17 15 12 9 7 8 10 9 8 8 8 8 8 7 6 6 5 5 5 5 5 6 7 7 9 10 10 10 10 11 11
14 14 14 15 15 15 17 17 16 15 14 13 12 12 12 11 10 10 9 9 10 10 10 10 10 11 12 11 11 11 11 11 13 14 14 14 14 15 15 16 17 17 16 16 16 17 19 18 17 18 18 18 17 17 17 16 14 11 10 10 10 9 10 9 7 4 6 7 6 5 6 7 7 6 5 7 8 9 10 11 11 12 11 11 12
16 16 15 15 15 16 17 17 16 16 16 14 12 11 11 11 11 11 10 11 11 11 11 11 12 13 13 12 12 12 12 12 12 12 12 13 14 14 15 15 15 15 16 17 18 20 21 20 20 20 20 19 18 17 15 13 12 11 11 11 10 9 10 11 11 8 4 3 2 1 2 5 7 7 7 8 9 10 11 12 12 13 13 12 12
16 16 16 16 16 17 18 17 17 17 16 14 13 12 12 12 12 13 13 13 13 13 13 13 14 14 15 14 13 13 13 13 13 13 13 14 14 14 15 15 16 16 17 19 20 22 23 22 21 21 20 19 17 15 13 12 11 9 8 7 6 5 4 6 7 6 5 4 3 1 3 7 8 8 8 9 10 11 12 13 13 14 16 15 14
18 17 17 17 17 17 17 17 17 16 15 15 15 14 14 14 14 14 14 15 15 15 15 15 15 16 16 16 15 14 14 15 16 17 18 18 18 17 17 18 19 21 22 22 23 23 23 22 21 20 19 18 15 14 13 12 10 8 6 4 4 3 1 1 2 2 2 1 2 2 3 8 10 11 11 12 12 12 13 14 15 16 17 17 16
20 19 18 18 18 17 17 17 17 17 17 16 16 16 17 17 17 17 17 18 18 18 17 17 17 17 18 18 18 17 17 17 18 19 20 20 21 21 22 22 23 23 24 25 25 24 24 23 22 21 21 20 18 17 16 14 11 9 7 6 5 4 2 1 2 2 4 5 5 4 4 6 9 11 13 14 14 14 13 14 16 16 16 17 18
22 21 20 19 19 18 18 19 19 19 19 18 18 19 19 19 19 18 19 20 21 22 22 21 20 20 20 20 20 20 20 19 19 20 20 21 22 23 24 25 25 26 26 27 27 26 25 24 23 23 23 22 21 21 19 17 15 13 11 9 7 6 5 3 2 3 3 4 4 3 3 5 7 8 9 9 8 9 9 10 12 13 13 14 16
24 22 22 21 21 20 20 20 19 20 20 20 20 20 21 21 21 21 21 22 23 23 23 23 23 23 22 20 20 21 22 21 20 20 20 21 24 25 26 27 28 29 29 29 28 28 27 26 25 25 24 22 21 20 19 18 17 16 13 11 9 9 8 7 6 5 4 2 2 3 4 5 5 6 7 8 8 9 10 11 11 11 12 12 13
Wind_Direction
185 184 185 187 188 189 191 192 193 194 195 196 198 199 200 201 203 204 204 203 202 201 201 202 202 202 203 205 207 207 206 205 206 205 206 210 215 221 225 222 222 226 232 236 236 235 235 234 233 233 234 239 241 240 239 234 229 233 237 236 236 234 230 235 247 259 265 265 266 269 271 270 266 260 257 257 256 257 261 265 269 270 272 274 274
186 185 186 187 189 189 190 190 190 192 194 195 197 198 199 199 200 201 202 202 202 201 201 203 203 204 205 206 207 207 205 204 205 205 206 208 212 217 221 221 221 223 227 231 233 234 234 235 235 234 235 238 240 241 242 240 235 233 234 235 239 239 233 233 244 259 267 266 265 268 268 266 265 262 259 258 258 259 258 260 263 267 271 275 276
187 186 186 187 189 189 189 189 190 192 193 195 198 198 198 198 198 199 201 202 201 202 203 203 203 204 206 206 206 205 203 203 205 206 207 208 212 216 218 219 220 222 225 227 229 231 232 234 235 235 234 236 239 241 243 244 244 242 239 238 240 242 239 236 240 253 266 271 271 270 270 267 264 265 264 262 262 262 261 261 263 263 265 268 269
187 186 187 187 188 188 189 191 191 192 194 196 199 199 198 198 198 199 201 202 202 202 203 204 203 203 205 206 204 204 202 201 204 207 208 209 212 216 218 219 220 221 224 227 229 230 231 233 236 236 234 235 237 239 241 242 244 246 246 243 243 244 244 242 242 247 259 269 271 270 270 269 267 267 266 264 265 265 266 266 267 267 267 267 268
187 187 188 188 188 189 190 192 192 193 196 198 199 200 200 199 197 198 201 203 203 201 200 202 202 201 204 205 204 203 202 201 203 206 209 211 213 215 218 219 221 222 223 226 228 229 230 232 234 234 232 234 236 238 239 239 240 242 244 245 244 245 245 245 245 247 252 260 267 270 270 270 270 268 266 267 270 271 271 268 267 268 272 274 276
187 187 188 189 190 191 191 193 194 195 196 198 199 200 201 201 198 197 200 203 204 201 199 200 202 202 203 204 204 203 202 202 203 206 210 212 213 215 218 219 220 222 223 224 226 228 230 231 233 233 232 233 236 238 238 237 238 239 241 242 243 244 245 245 245 247 251 256 264 269 270 270 271 271 270 268 269 272 276 276 274 274 276 280 285
187 187 188 190 190 191 193 194 195 196 196 199 200 200 201 202 200 198 198 201 203 202 200 199 200 201 201 203 204 203 202 202 204 206 209 211 212 214 217 219 220 222 223 224 226 228 230 231 232 233 232 232 235 238 237 235 235 236 237 240 242 244 246 246 246 248 251 257 261 266 269 270 270 272 274 271 267 269 274 280 284 285 285 287 290
186 186 188 190 190 192 193 194 195 195 196 198 199 200 201 202 202 199 198 200 202 203 202 200 199 200 201 202 203 203 202 203 204 205 207 210 212 214 216 219 220 221 223 225 227 230 232 234 236 235 232 231 231 234 236 235 235 236 237 237 240 243 245 247 249 250 253 259 263 266 270 272 272 275 276 273 271 273 277 282 288 291 292 292 293
186 186 187 189 190 191 192 192 193 194 194 195 197 200 201 201 202 200 198 200 202 204 204 202 199 199 200 200 202 203 204 205 205 206 205 207 210 214 217 218 220 222 223 225 228 230 233 237 240 239 236 233 230 232 235 234 233 235 237 237 239 241 243 246 249 252 256 260 264 266 269 271 271 274 274 271 275 284 290 290 290 293 297 298 297
187 186 187 188 189 189 189 190 191 192 193 194 195 198 199 199 201 200 199 200 201 203 205 204 202 200 200 200 201 203 206 208 208 208 207 206 208 213 217 218 220 221 222 225 228 230 234 238 242 243 242 238 235 236 238 238 238 237 236 235 236 239 243 246 247 250 254 258 262 265 267 269 271 274 277 278 281 288 292 293 295 299 302 300 297
188 188 188 187 185 185 187 188 189 190 191 192 193 194 196 197 199 199 199 199 200 202 203 205 206 204 202 202 203 204 207 210 210 211 212 211 209 211 215 217 218 219 220 223 226 230 234 238 242 244 244 242 240 240 242 245 247 247 245 241 239 238 240 245 248 250 252 256 261 263 265 270 275 278 281 284 286 290 297 302 302 301 300 298 296
190 189 187 184 183 183 184 185 187 188 189 189 190 191 194 196 197 198 198 198 198 200 202 205 208 208 206 206 207 208 210 211 212 213 216 216 213 210 213 216 217 218 219 221 224 228 232 237 241 243 243 242 241 240 244 248 251 253 254 252 251 247 244 243 246 248 252 259 264 264 265 270 276 278 281 287 293 298 302 303 300 297 296 295 294
188 187 186 184 183 183 183 183 185 185 185 186 186 187 190 194 196 196 197 197 197 199 202 204 206 209 210 210 210 212 215 214 213 215 218 220 218 214 213 217 219 219 220 221 223 226 229 232 238 241 243 244 242 238 239 245 251 255 255 255 255 254 250 246 244 244 247 255 264 265 264 268 274 277 282 291 299 301 300 298 296 296 296 295 297
187 186 186 185 183 183 183 183 183 183 183 183 182 184 188 191 194 194 195 196 196 198 201 203 205 208 210 212 213 215 218 217 216 217 220 222 222 219 217 219 224 225 223 223 224 225 226 228 231 236 239 242 242 238 233 235 245 251 252 252 254 256 257 254 249 246 245 247 253 258 261 263 268 272 277 284 291 294 296 297 300 300 298 297 300
186 185 185 184 183 183 183 183 182 181 181 181 182 185 187 190 193 194 195 196 196 198 201 203 204 206 208 212 215 216 220 221 219 219 221 223 225 223 221 223 229 231 228 226 225 226 226 226 228 232 235 237 239 238 232 228 233 240 245 248 250 252 255 255 253 252 249 247 250 256 261 264 265 269 273 278 284 288 292 298 301 300 298 297 298
185 184 184 185 184 184 183 182 182 181 181 182 183 186 188 189 191 194 197 199 199 198 201 203 204 205 207 211 215 218 221 223 223 221 221 222 223 222 222 224 229 232 232 229 228 227 227 226 227 230 232 234 237 237 234 229 229 234 239 242 245 248 249 251 253 254 255 256 258 262 267 269 267 265 266 273 281 287 291 295 297 296 296 295 294
185 184 185 185 184 184 184 183 182 182 182 184 186 187 188 188 190 192 197 200 201 200 202 204 206 207 207 209 212 217 221 224 225 224 221 219 219 219 220 221 226 229 231 231 230 229 229 228 228 230 231 234 237 238 236 232 229 235 241 244 249 251 252 256 257 256 256 259 263 268 274 277 273 267 266 269 277 283 288 292 294 295 295 296 296
186 184 185 186 185 184 185 184 183 183 184 186 188 188 188 188 189 192 197 202 204 204 204 206 208 208 209 210 211 215 220 223 224 223 222 220 218 218 218 218 221 225 227 230 231 231 231 231 231 231 232 234 237 237 237 234 231 233 240 246 250 252 253 255 257 260 262 261 262 266 270 272 271 268 268 271 276 279 278 278 280 287 292 296 302
186 185 185 186 185 185 186 186 185 186 186 188 189 188 188 189 190 192 198 203 207 208 207 208 210 210 212 214 213 214 218 223 223 222 222 221 220 218 215 214 218 220 222 227 229 229 232 234 234 234 234 235 236 235 236 236 231 231 237 244 247 249 252 254 255 259 261 258 257 258 259 265 272 276 283 288 287 281 271 266 266 270 283 294 300
185 185 183 184 185 186 186 187 187 188 188 188 189 189 188 190 191 193 198 203 208 211 212 212 214 214 215 217 215 214 217 222 224 222 221 221 221 218 213 211 215 217 219 224 228 228 229 232 235 238 239 238 236 233 235 236 233 231 235 240 244 247 251 256 259 261 260 259 260 259 260 274 285 287 291 290 284 276 270 266 262 261 275 290 296
182 182 182 184 187 186 187 188 188 188 188 187 188 189 190 191 192 194 198 202 206 211 214 216 217 217 217 218 218 216 217 220 223 223 221 221 222 219 214 211 213 214 217 223 227 228 228 229 232 238 241 242 239 236 236 238 237 235 234 237 243 247 251 261 275 282 276 270 268 268 274 284 286 284 282 275 271 270 265 258 254 262 282 293 297
180 181 182 184 186 186 186 187 186 187 188 186 186 188 189 192 193 193 198 202 205 209 213 215 219 219 219 219 219 219 219 218 220 223 222 221 222 222 219 215 213 214 218 222 226 229 230 230 232 236 240 244 243 239 238 240 241 240 239 239 243 247 251 260 274 284 282 275 272 274 280 282 280 279 276 270 269 272 265 249 251 278 294 295 295
178 179 181 183 185 185 185 184 184 186 185 184 185 186 187 190 192 193 196 200 202 206 209 212 216 219 219 218 218 220 221 219 220 221 222 222 223 224 224 221 217 215 219 224 226 228 232 234 235 237 239 242 243 241 242 243 244 245 245 245 247 250 252 256 264 272 274 272 272 275 277 275 271 269 268 269 271 265 266 278 285 290 296 297 294
175 177 180 181 182 182 182 182 182 185 184 182 184 185 186 188 190 190 193 197 200 204 205 207 212 216 218 219 219 218 218 219 221 222 222 223 224 225 227 226 221 218 221 226 229 232 236 238 238 239 240 241 243 244 246 247 247 248 250 250 249 251 251 251 255 259 259 259 261 262 260 256 255 256 262 277 288 277 273 282 289 291 293 293 291
175 176 177 179 179 179 180 180 182 184 184 182 183 184 184 185 187 188 191 195 200 203 204 205 209 214 217 219 219 218 216 217 221 223 223 225 227 227 228 228 225 221 221 225 232 238 241 241 239 238 239 238 239 242 245 248 249 248 248 247 244 245 246 244 241 239 240 241 240 242 245 245 241 240 255 271 282 286 283 284 289 289 283 279 283
173 174 175 176 178 178 177 178 181 184 184 183 184 184 184 185 186 188 192 196 199 202 203 205 207 210 216 219 218 219 218 217 219 221 222 225 228 228 229 229 229 226 224 223 228 236 245 251 249 242 234 229 230 236 242 247 249 246 242 241 238 235 230 227 224 223 226 228 228 230 235 232 220 223 250 265 272 271 262 270 279 279 274 279 287
170 172 173 174 175 176 176 176 179 183 184 184 185 185 186 188 188 190 193 196 199 201 203 206 208 209 213 217 217 218 218 217 219 217 215 219 224 226 227 227 227 226 225 224 226 231 240 250 252 249 239 227 225 232 240 244 246 244 239 236 232 223 215 216 217 218 220 224 231 235 232 224 221 234 246 249 242 225 230 257 271 271 272 282 284
168 169 169 170 172 174 175 176 179 183 186 187 187 187 190 193 193 194 196 197 198 200 202 205 209 210 211 213 215 217 218 218 218 214 209 213 218 221 223 225 225 224 224 224 226 228 233 243 249 248 241 231 225 231 238 241 241 239 234 226 219 212 212 214 214 214 216 220 229 238 236 227 231 236 231 223 216 212 221 240 251 258 269 272 275
168 168 169 169 171 174 176 179 183 186 186 189 190 188 191 195 196 195 198 200 200 202 202 204 208 211 214 216 214 215 219 221 221 218 213 212 213 214 217 222 223 224 226 224 222 223 225 231 237 237 231 230 231 233 237 237 234 233 232 226 220 217 215 214 215 218 217 214 217 225 229 223 216 214 215 214 205 200 211 226 234 243 254 261 276
166 169 172 171 173 178 181 182 185 187 186 187 187 184 186 193 197 196 198 200 203 204 204 204 206 210 217 220 218 219 224 224 220 216 212 211 209 206 213 221 221 223 228 224 216 213 218 220 223 227 226 226 229 231 232 229 226 228 230 226 225 226 222 218 218 214 203 198 204 211 210 207 204 202 205 205 199 201 209 212 213 226 248 271 310
168 171 174 174 174 179 184 184 183 187 188 185 184 181 178 186 194 196 196 198 202 206 209 209 208 209 213 217 217 220 223 218 206 202 204 207 205 201 206 215 213 215 223 218 207 207 214 215 217 221 221 220 223 227 228 224 219 223 227 223 222 226 225 222 220 207 189 190 202 205 201 200 199 195 194 198 202 205 204 200 208 227 275 312 333
168 170 169 165 164 174 185 186 180 184 189 186 183 182 181 186 194 199 199 198 200 205 211 216 220 220 217 214 209 209 212 209 201 195 195 201 204 202 203 207 204 205 211 207 200 204 212 214 216 219 219 221 223 223 225 223 218 218 223 222 217 218 222 223 217 205 196 199 201 197 193 192 189 185 186 190 195 197 196 200 208 252 327 328 339
170 172 167 159 157 169 181 183 176 180 187 189 186 184 185 192 198 200 203 205 203 204 209 215 221 226 227 225 221 211 204 203 205 202 196 196 201 205 207 207 204 203 201 197 197 204 211 214 217 219 219 221 223 222 223 223 218 217 221 220 211 211 219 221 207 195 198 201 196 188 186 184 182 183 184 183 184 183 180 186 200 320 339 335 342
136 145 153 164 172 175 176 176 174 176 182 188 192 191 193 199 205 204 202 203 207 211 213 214 217 222 226 228 230 229 219 205 201 202 200 199 202 207 209 206 202 201 201 199 199 206 212 215 219 221 220 221 222 223 222 218 216 218 217 208 202 208 215 210 195 190 192 191 187 185 182 178 178 180 176 173 173 173 172 177 167 62 13 345 334
108 109 120 151 172 176 175 175 178 181 184 187 188 194 202 207 212 214 210 204 204 211 215 217 219 220 222 224 227 230 230 225 216 209 206 205 208 210 207 199 192 192 198 204 208 211 215 218 221 222 221 220 220 220 216 213 214 213 202 192 203 212 208 197 192 190 187 184 185 186 180 174 173 172 169 165 162 164 172 168 139 102 38 336 317
109 110 104 124 167 175 172 166 168 177 187 192 191 194 201 206 210 216 214 205 202 203 196 199 210 217 221 224 226 228 229 230 228 222 216 215 217 212 202 195 192 192 197 206 212 214 217 220 222 223 221 217 213 211 210 209 208 206 201 202 207 205 197 192 189 184 180 180 180 177 175 173 168 163 160 159 159 170 175 158 139 132 97 22 326
55 58 47 30 34 152 152 124 85 77 132 197 201 200 201 203 209 215 210 202 206 196 151 148 176 199 209 220 228 228 225 224 224 221 217 217 220 215 205 201 201 199 201 207 210 212 215 220 222 220 213 202 193 191 195 198 196 195 199 203 198 189 187 186 178 169 173 179 174 173 181 179 165 158 160 160 163 175 177 170 180 186 180 217 284
52 50 39 27 25 58 126 111 83 71 102 227 218 208 207 209 213 219 217 209 211 196 151 145 163 170 164 175 201 213 210 207 205 203 200 200 203 205 208 213 210 205 207 211 209 211 216 218 213 205 198 190 187 189 190 188 185 182 182 184 185 183 184 180 168 164 174 180 174 178 186 175 154 153 162 163 166 177 180 190 217 220 209 217 240
52 61 53 35 26 29 62 86 93 118 195 224 221 206 207 215 218 224 224 218 216 209 185 164 133 109 116 132 153 175 183 184 186 187 189 193 196 199 208 219 215 209 214 217 213 214 217 209 190 183 182 183 189 190 185 181 180 178 176 177 179 175 170 165 163 172 183 181 174 182 187 170 152 152 157 163 172 182 190 205 228 245 240 240 249
35 53 55 42 33 32 39 56 76 102 160 217 235 229 221 221 224 229 226 216 209 202 164 110 89 89 104 130 152 166 175 178 178 179 181 186 191 196 207 220 219 214 218 217 208 214 220 209 190 191 193 190 191 188 181 177 174 169 170 173 168 160 157 158 167 183 189 180 173 177 177 161 148 149 157 171 184 192 204 219 230 239 254 269 275
20 36 46 48 47 50 66 76 64 55 48 31 15 7 346 287 273 274 238 189 121 88 78 74 74 82 122 165 163 164 170 171 170 173 177 180 185 193 207 224 224 214 209 187 176 196 214 211 202 199 190 181 175 163 157 162 157 150 155 158 147 145 157 167 175 187 188 176 170 174 170 155 150 154 163 177 190 202 221 238 245 243 245 253 260
18 29 37 39 38 36 38 45 50 47 42 39 38 35 29 27 27 26 34 56 67 71 73 68 64 69 108 156 158 154 148 147 150 150 151 156 162 170 179 175 146 147 143 131 142 161 161 152 160 158 137 132 132 125 133 154 154 151 156 152 144 151 168 171 169 175 175 169 171 172 159 152 158 164 165 176 199 224 235 239 249 258 262 264 265
23 32 38 41 42 38 29 24 33 46 48 46 45 40 33 32 36 38 44 52 56 65 76 78 79 91 103 115 128 124 111 107 112 109 105 105 104 102 106 107 107 110 109 106 112 123 120 113 108 98 92 96 101 101 107 128 140 143 148 146 143 149 155 150 147 154 163 174 185 179 163 160 170 184 202 204 212 241 254 251 252 262 269 268 266
27 33 41 44 44 41 35 30 34 45 50 49 48 42 35 36 42 46 52 59 64 74 88 95 101 107 105 100 99 98 93 93 95 94 93 91 85 80 85 92 94 92 92 94 100 106 109 109 105 98 95 98 100 100 100 104 108 110 122 137 140 141 140 140 151 173 184 186 184 175 171 177 183 198 226 234 236 250 261 262 263 264 265 268 274
31 34 40 42 39 38 38 34 33 39 44 46 47 46 41 41 45 50 59 72 81 85 90 93 94 97 97 95 93 94 96 96 93 91 93 93 88 83 83 87 87 85 85 89 93 95 97 97 97 98 97 95 93 92 91 93 94 92 97 109 114 117 123 122 116 149 191 193 189 187 198 211 211 210 233 256 262 261 261 265 271 271 268 271 274
36 37 39 39 38 37 36 31 29 34 39 39 41 46 47 46 49 57 66 73 79 82 83 80 77 76 81 89 94 94 94 91 86 88 95 101 99 94 90 89 91 90 89 89 91 93 93 94 96 98 94 85 79 79 82 90 97 95 92 94 96 105 121 116 94 80 99 143 161 197 253 261 254 248 258 274 281 282 280 284 289 288 282 280 279
40 42 43 43 42 42 40 37 35 37 39 39 42 47 50 50 52 58 62 66 70 73 73 72 69 67 72 80 83 82 78 73 69 70 77 85 91 91 87 89 94 94 91 90 91 94 97 99 102 105 106 101 97 96 98 105 110 101 90 90 86 81 107 124 113 104 112 122 129 117 350 336 322 304 289 282 279 281 283 285 285 280 275 274 273
44 45 46 47 49 50 48 45 43 43 43 45 47 49 51 51 51 52 56 60 65 68 70 71 71 71 73 76 76 74 74 74 75 77 79 82 88 91 91 95 100 101 99 98 98 98 100 101 101 104 107 110 112 112 108 107 108 102 94 98 94 75 79 177 182 182 182 193 210 241 330 335 325 314 308 303 297 293 289 284 281 277 278 282 281
51 50 49 50 52 54 55 55 53 49 46 46 48 50 52 53 52 53 55 58 61 64 68 71 72 73 73 73 72 71 71 71 73 77 79 81 86 93 99 103 106 105 103 101 100 99 101 104 104 102 100 97 98 99 100 103 108 109 102 93 77 59 44 276 265 268 275 282 285 292 319 322 306 295 291 291 294 299 298 294 292 288 285 287 288
56 54 54 53 54 54 57 60 61 59 55 53 51 51 52 52 52 54 57 60 62 65 67 69 70 71 72 71 70 70 69 66 64 66 69 73 79 85 90 93 94 93 93 94 94 94 95 97 99 99 96 89 83 81 80 80 81 79 75 70 59 44 34 24 355 320 295 287 287 287 293 301 305 307 303 297 304 320 325 322 318 312 299 288 287
59 57 55 55 55 55 55 57 59 60 61 60 58 57 55 54 53 54 55 58 61 64 67 70 71 71 71 71 70 70 70 69 67 65 65 69 74 78 80 82 83 83 83 84 85 86 87 87 88 89 88 84 78 73 68 66 64 60 56 54 47 34 28 25 15 5 3 3 340 317 304 296 300 310 310 302 303 313 317 318 321 324 320 312 306